XE1DM Weather Reports


time (UTC)temp
F
wind
direction
speed
knots
gust
knots
rain 1hr
in
rain 24hr
in
rain mn
in
humidity
%
barometer
mb
20260509034537 64 87 1.7 7.8 0.00 0.08 0.08 56 1010.0
20260509033038 63 39 2.6 6.1 0.00 0.08 0.08 58 1010.2
20260509031538 62 44 5.2 9.6 0.00 0.08 0.08 59 1010.0
20260509030036 62 83 1.7 3.5 0.00 0.08 0.08 61 1010.0
20260509024537 62 89 0.9 4.3 0.00 0.08 0.08 62 1010.0
20260509023039 62 32 0.9 3.5 0.00 0.08 0.08 61 1009.9
20260509021537 63 18 3.5 6.1 0.00 0.08 0.08 60 1009.7
20260509020044 63 102 0.0 1.7 0.00 0.08 0.08 63 1009.9
20260509014533 63 77 1.7 5.2 0.00 0.08 0.08 59 1009.3
20260509013042 63 23 6.1 10.4 0.00 0.08 0.08 59 1008.6
20260509011536 63 62 6.1 13.0 0.00 0.08 0.08 61 1008.3
20260509010039 62 75 4.3 13.9 0.00 0.08 0.08 63 1008.2
20260509004534 62 58 7.8 12.2 0.00 0.08 0.08 65 1008.1
20260509003032 62 46 3.5 7.0 0.00 0.08 0.08 68 1008.2
20260509001532 62 10 1.7 3.5 0.00 0.08 0.08 77 1008.3
20260509000031 62 152 0.0 5.2 0.02 0.08 0.08 75 1007.7
20260508234531 62 152 1.7 4.3 0.04 0.08 0.08 73 1007.4
20260508233030 63 49 1.7 7.0 0.05 0.08 0.08 71 1006.4
20260508231530 59 170 4.3 14.8 0.08 0.08 0.08 71 1005.9
20260508230039 60 359 7.0 12.2 0.06 0.06 0.06 78 1007.9
20260508224528 59 110 2.6 7.0 0.04 0.04 0.04 80 1007.5
20260508223030 60 143 7.0 13.9 0.03 0.03 0.03 77 1007.2
20260508221525 66 158 2.6 16.5 0.00 0.00 0.00 56 1006.9
20260508220027 69 187 1.7 7.8 0.00 0.00 0.00 49 1006.2
20260508214528 69 166 2.6 16.5 0.00 0.00 0.00 51 1005.9
20260508213035 75 177 5.2 10.4 0.00 0.00 0.00 41 1006.1
20260508211534 76 300 6.1 11.3 0.00 0.00 0.00 40 1004.9
20260508210026 76 336 5.2 11.3 0.00 0.00 0.00 39 1004.6
20260508204522 77 271 7.8 13.0 0.00 0.00 0.00 41 1004.6
20260508203020 78 308 4.3 11.3 0.00 0.00 0.00 39 1005.1
20260508201516 77 244 7.0 13.0 0.00 0.00 0.00 40 1005.4
20260508200013 77 295 4.3 10.4 0.00 0.00 0.00 39 1005.8
20260508194524 76 274 5.2 12.2 0.00 0.00 0.00 40 1006.3
20260508193008 77 231 5.2 10.4 0.00 0.00 0.00 39 1006.3
20260508191505 76 278 7.0 13.0 0.00 0.00 0.00 40 1006.6
20260508190002 76 240 7.8 11.3 0.00 0.00 0.00 41 1007.0
20260508184607 75 345 5.2 10.4 0.00 0.00 0.00 41 1007.1
20260508183123 75 287 2.6 11.3 0.00 0.00 0.00 44 1007.5
20260508181604 74 277 3.5 10.4 0.00 0.00 0.00 43 1007.6
20260508180050 73 201 3.5 11.3 0.00 0.00 0.00 44 1007.8
20260508174551 73 268 6.1 13.0 0.00 0.00 0.00 47 1007.9
20260508173046 73 299 7.0 12.2 0.00 0.00 0.00 48 1008.0
20260508171544 72 280 6.1 9.6 0.00 0.00 0.00 49 1008.1
20260508170052 72 255 4.3 8.7 0.00 0.00 0.00 49 1008.3
20260508164546 72 231 3.5 9.6 0.00 0.00 0.00 52 1008.7
20260508163038 70 215 3.5 8.7 0.00 0.00 0.00 55 1009.0
20260508161535 70 168 3.5 7.0 0.00 0.00 0.00 54 1009.2
20260508160034 69 228 1.7 6.1 0.00 0.00 0.00 55 1009.4
20260508154549 69 243 2.6 6.1 0.00 0.00 0.00 54 1009.6
20260508153031 68 206 0.0 4.3 0.00 0.00 0.00 55 1009.7
20260508151533 68 319 1.7 5.2 0.00 0.00 0.00 55 1009.7
20260508150035 67 250 1.7 4.3 0.00 0.00 0.00 56 1009.8
20260508144527 67 149 0.9 2.6 0.00 0.00 0.00 55 1009.6
20260508143029 66 146 0.9 2.6 0.00 0.00 0.00 56 1009.6
20260508141532 67 125 0.0 3.5 0.00 0.00 0.00 55 1009.7
20260508140027 67 125 1.7 2.6 0.00 0.00 0.00 55 1009.7
20260508134523 66 89 0.0 2.6 0.00 0.00 0.00 57 1009.7
20260508133041 65 80 0.0 1.7 0.00 0.00 0.00 57 1009.7
20260508131517 63 75 0.0 2.6 0.00 0.00 0.00 61 1009.5
20260508130015 62 76 1.7 4.3 0.00 0.00 0.00 62 1009.6
20260508124512 61 79 1.7 5.2 0.00 0.00 0.00 62 1009.6
20260508123011 60 63 1.7 4.3 0.00 0.00 0.00 64 1009.4
20260508121508 60 71 1.7 4.3 0.00 0.00 0.00 65 1009.4
20260508120003 58 63 2.6 5.2 0.00 0.00 0.00 68 1009.3
20260508114502 58 54 0.0 1.7 0.00 0.00 0.00 70 1009.3
20260508113001 59 53 0.0 3.5 0.00 0.00 0.00 68 1009.3
20260508111501 58 53 0.9 1.7 0.00 0.00 0.00 70 1009.2
20260508110001 59 54 1.7 4.3 0.00 0.00 0.00 68 1008.8
20260508104600 58 50 0.9 2.6 0.00 0.00 0.00 69 1008.7
20260508103100 58 50 0.0 1.7 0.00 0.00 0.00 69 1008.7
20260508101559 58 50 0.9 2.6 0.00 0.00 0.00 69 1008.6
20260508100110 58 50 0.9 1.7 0.00 0.00 0.00 69 1008.7
20260508094606 58 51 1.7 5.2 0.00 0.00 0.00 70 1008.7
20260508093053 58 123 1.7 3.5 0.00 0.00 0.00 71 1008.9
20260508091602 58 92 1.7 3.5 0.00 0.00 0.00 72 1009.1
20260508090109 57 20 0.9 2.6 0.00 0.00 0.00 73 1009.4
20260508084548 57 16 0.0 1.7 0.00 0.00 0.00 74 1009.6
20260508083046 57 16 0.0 1.7 0.00 0.00 0.00 73 1009.7
20260508081601 57 16 0.0 1.7 0.00 0.00 0.00 73 1009.7
20260508080045 57 16 0.9 2.6 0.00 0.00 0.00 72 1009.7
20260508074546 57 16 0.9 2.6 0.00 0.00 0.00 70 1009.9
20260508073056 58 16 1.7 2.6 0.00 0.00 0.00 69 1009.6
20260508071538 58 16 0.0 0.9 0.00 0.00 0.00 69 1009.9
20260508070036 59 16 0.9 2.6 0.00 0.00 0.00 67 1010.1
20260508064536 59 16 1.7 3.5 0.00 0.00 0.00 69 1010.3
20260508063035 59 16 0.0 1.7 0.00 0.00 0.00 67 1010.4
20260508061537 59 16 0.0 2.6 0.00 0.00 0.00 67 1010.3
20260508060027 60 16 0.9 3.5 0.00 0.00 0.00 67 1010.7
20260508054533 60 17 0.9 4.3 0.00 0.00 0.00 65 1011.0
20260508053032 61 73 0.0 0.9 0.00 0.00 0.00 63 1011.1
20260508051526 62 84 0.0 2.6 0.00 0.00 0.00 63 1011.1
20260508050025 62 110 1.7 7.0 0.00 0.00 0.00 62 1011.1
20260508044525 63 297 0.0 6.1 0.00 0.00 0.00 62 1011.0
20260508043024 64 302 1.7 2.6 0.00 0.00 0.00 61 1011.0
20260508041525 64 213 0.0 2.6 0.00 0.00 0.00 61 1010.8
20260508040024 64 8 4.3 7.8 0.00 0.00 0.00 61 1010.3